Location: Bodest
(46.3000°N, 22.5667°E)
Time: 23:45:03
(UTC+00:00)

CSL-04 Rocket - Pass Details

Date: 16 October 2021
Orbit: 806 x 860 km, 98.9° (Epoch: 26 November)

Event Time Altitude Azimuth Distance (km) Brightness Sun altitude
Exits shadow 17:48:34 28° 159° (SSE) 1,552 4.8 -22.7°
Maximum altitude 17:51:37 84° 74° (ENE) 867 3.6 -23.2°
Drops below altitude 10° 17:57:12 10° 347° (NNW) 2,507 6.4 -24.1°
Sets 17:59:36 0° 347° (NNW) 3,449 7.2 -24.5°
